Location: Kalberh�ni
(46.4610°N, 7.2453°E)
Time: 00:58:58
(UTC+00:00)

Cosmos 1867 - Pass Details

Date: 20 June 2021
Orbit: 773 x 802 km, 65.0° (Epoch: 25 July)

Event Time Altitude Azimuth Distance (km) Brightness Sun altitude
Rises 21:17:15 0° 324° (NW) 3,322 8.8 -13.7°
Reaches altitude 10° 21:19:42 10° 325° (NW) 2,388 7.5 -13.9°
Maximum altitude 21:25:13 78° 53° (NE) 824 3.6 -14.4°
Enters shadow 21:28:53 22° 137° (SE) 1,708 4.7 -14.7°
